Location: Brzotice
(49.6628°N, 15.1313°E)
Time: 18:53:26
(UTC+00:00)

Daily predictions for brighter satellites

Satellite Brightness Start Highest point End
(mag) Time Altitude Azimuth Time Altitude Azimuth Time Altitude Azimuth
NOSS 3-1 (A) 4.1 15:25:09 10° NW 15:32:10 56° NE 15:40:28 10° ESE
Cosmos-2242 3.6 15:29:37 10° SSW 15:33:51 60° WNW 15:38:06 10° N
NOSS 3-1 (C) 4.1 15:27:02 10° NW 15:34:17 76° NE 15:42:53 10° SE
USA 234 3.4 15:29:57 10° ESE 15:36:30 88° SSW 15:43:05 10° WNW
YAOGAN 6 4.4 15:34:36 10° SSW 15:37:59 37° W 15:41:26 10° NNW
Cosmos 1939 Rocket 3.4 15:34:26 10° SE 15:38:14 38° ENE 15:42:03 10° N
ADEOS 3.9 15:33:11 10° S 15:38:25 76° WSW 15:43:40 10° NNW
NOSS 2-1 (D) 2.9 15:35:40 10° SW 15:38:54 81° NW 15:42:17 10° NE
USA 307 3.0 15:35:41 10° WSW 15:40:00 81° NNW 15:44:17 10° ENE
SJ 16-02 1.6 15:36:38 10° NNW 15:41:02 77° WSW 15:45:24 10° SSE
CZ-2C R/B 2.9 15:36:22 10° SSE 15:41:17 70° ENE 15:46:04 10° N
SJ-7 4.5 15:39:29 10° SSE 15:43:40 85° ENE 15:47:56 10° NNW
Cosmos 2322 Rocket 4.1 15:42:35 10° N 15:43:53 11° NNE 15:45:11 10° NE
Cosmos 1656 3.6 15:43:25 10° NNW 15:48:56 65° ENE 15:54:28 10° SE
Cosmos 1500 Rocket 4.1 15:45:16 10° N 15:49:26 37° ENE 15:53:31 10° SE
Cosmos 1513 Rocket 4.5 15:44:32 10° S 15:50:35 70° E 15:56:46 10° NNE
Cosmos 1697 Rocket 3.1 15:45:53 10° NNW 15:51:10 40° NE 15:56:25 10° ESE
ATLAS CENTAUR R/B 2.2 15:47:40 10° WSW 15:51:44 49° NW 15:56:08 10° NNE
Cosmos 1271 Rocket 3.0 15:49:28 10° SSW 15:53:23 75° WNW 15:57:23 10° N
Cosmos 1980 Rocket 3.1 15:48:59 10° NNW 15:53:46 27° NE 15:58:28 10° E
Okean 3 Rocket 4.1 15:51:56 10° NNW 15:56:26 65° W 16:00:51 10° S
AQUARIUS 4.3 15:54:53 10° SE 15:59:13 51° ENE 16:03:35 10° N
SL-16 R/B 3.9 15:57:08 10° N 16:00:02 14° NNE 16:02:27 11° NE
Cosmos 1805 Rocket 4.3 15:56:45 10° N 16:00:34 29° ENE 16:04:21 10° SE
USA 308 3.1 15:58:06 10° WSW 16:02:20 67° NNW 16:06:00 14° ENE
Cosmos 2034 Rocket 4.1 15:57:48 10° S 16:03:47 57° E 16:09:48 10° NNE
Cosmos 1842 Rocket 3.6 16:00:35 10° S 16:04:59 64° E 16:09:26 10° NNE
Cosmos 1898 Rocket 3.7 16:00:55 10° NNW 16:06:03 49° ENE 16:11:06 10° SE
Sich 1 3.9 16:02:55 10° NNE 16:06:34 26° ENE 16:10:13 10° SE
Cosmos 2082 Rocket 3.8 16:04:47 10° SE 16:07:57 15° E 16:09:48 13° ENE
CZ-4B DEB 4.2 16:04:21 10° SSE 16:09:46 61° ENE 16:15:12 10° N
ISS -3.6 16:08:38 10° WNW 16:12:01 60° N 16:14:26 18° E
Cosmos 1782 4.1 16:10:55 10° SE 16:13:56 21° E 16:15:43 16° NE
Cosmos 2221 2.5 16:10:45 10° S 16:15:01 89° WNW 16:19:21 10° N
H-2A R/B 2.2 16:12:48 10° SE 16:17:47 49° ENE 16:22:39 10° N
COSMOS 2406 4.1 16:13:59 10° SSE 16:18:54 30° ESE 16:22:38 16° NE
SL-16 R/B 4.5 16:16:55 10° NW 16:18:58 12° NNW 16:21:01 10° N
Cosmos 1602 4.1 16:16:30 10° N 16:20:10 40° ENE 16:23:49 10° SE
USA 276 2.7 16:17:56 10° W 16:20:59 53° SSW 16:23:52 11° SE
MOS 1-B 4.4 16:15:48 10° SE 16:21:27 58° ENE 16:27:07 10° N
CZ-4 R/B 3.5 16:24:07 12° NNE 16:24:07 12° NNE 16:24:34 10° NNE
Cosmos 1340 Rocket 2.8 16:18:52 10° NNW 16:22:58 89° ENE 16:27:03 10° S
CORIOLIS 4.1 16:17:54 10° SSE 16:23:18 86° ENE 16:28:45 10° NNW
CZ-4B R/B 4.1 16:21:16 10° S 16:25:14 45° W 16:29:02 10° NNW
SL-24 R/B - RUBIN 2 4.2 16:21:16 10° NNW 16:25:38 37° NE 16:28:28 18° E
deb Chang Zheng 4 4.0 16:22:34 10° SE 16:26:33 38° ENE 16:30:33 10° N
Cosmos 1634 Rocket 4.4 16:21:38 10° SSE 16:27:31 43° E 16:33:26 10° NNE
USA 305 3.3 16:26:34 10° W 16:30:43 52° NNW 16:33:09 23° ENE
COSMO-SKYMED 1 3.4 16:28:35 18° NE 16:30:52 29° E 16:34:39 10° SSE
PAYLOAD B 4.2 16:25:25 10° SSE 16:30:59 71° ENE 16:36:35 10° NNW
Lacrosse 5 rocket 2.3 16:28:02 10° NW 16:31:25 29° N 16:33:00 22° NE
Cosmos 2084 3.5 16:31:05 10° NW 16:35:22 84° SW 16:39:51 10° SE
Cosmos 1833 Rocket 2.9 16:30:42 10° S 16:36:04 50° ESE 16:40:07 18° NE
Cosmos 2026 Rocket 3.9 16:30:16 10° N 16:36:24 62° ENE 16:42:25 10° SSE
Meteor 2-21 4.4 16:30:24 10° N 16:36:25 57° ENE 16:42:22 10° SSE
NOSS 2-2 (C) 4.3 16:33:51 10° NW 16:38:37 56° NE 16:45:12 10° ESE
NOSS 2-1 (E) 4.4 16:36:04 10° W 16:38:57 28° NW 16:41:06 16° NNE
Cosmos 2195 Rocket 4.4 16:32:56 10° N 16:39:05 75° ENE 16:45:17 10° SSE
CZ-2D R/B 3.1 16:35:32 10° SSE 16:39:21 79° ENE 16:43:12 10° N
ARGOS 3.3 16:35:38 10° SE 16:40:49 49° ENE 16:46:01 10° N
Meteor 1-20 Rocket 4.4 16:37:07 10° NNW 16:42:58 85° W 16:48:49 10° S
Cosmos 1933 3.3 16:39:08 10° S 16:43:09 63° E 16:46:42 13° NNE
USA 267 3.4 16:39:53 19° NE 16:44:46 72° NNW 16:51:16 10° WSW
Cosmos 2360 4.1 16:39:43 10° NNW 16:45:30 82° ENE 16:51:14 10° SSE
Cosmos 1633 Rocket 3.7 16:42:11 10° N 16:46:06 31° ENE 16:47:03 28° E
YAOGAN 1 3.7 16:47:48 24° NE 16:47:48 24° NE 16:50:22 10° N
CZ-4B R/B 3.1 16:41:33 10° SSE 16:46:57 67° ENE 16:52:16 10° N
Okean O Rocket 1.7 16:42:56 10° SE 16:47:13 50° ENE 16:51:34 10° N
Cosmos 1763 Rocket 3.3 16:43:21 10° SSW 16:48:25 77° ESE 16:52:31 16° NNE
Cosmos 44 Rocket 4.3 16:44:26 10° NNW 16:48:44 28° NNE 16:49:35 26° NE
Cosmos 1937 Rocket 3.4 16:45:31 10° NNW 16:50:53 80° ENE 16:56:13 10° SSE
Cosmos 841 Rocket 3.9 16:47:15 10° S 16:52:01 39° ESE 16:53:49 29° ENE
SMAP 4.3 16:49:06 10° S 16:53:33 44° W 16:58:03 10° NNW
Cosmos 1743 Rocket 4.4 16:53:26 10° NNW 16:57:39 51° W 17:01:50 10° S
PSLV R/B 4.4 16:54:22 10° S 16:57:59 53° W 17:01:38 10° NNW
USA 229 DEB 4.2 16:52:41 10° NW 16:59:57 72° SW 17:07:42 10° SSE
CZ-2C R/B 2.6 16:55:23 13° NNE 17:00:02 56° E 17:05:06 10° S
USA 229 4.2 16:52:47 10° NW 17:00:03 72° SW 17:07:48 10° SSE
SL-08 RB Rocket 3.9 16:56:53 10° SE 17:01:21 49° ENE 17:05:48 10° N
Meteor 2-14 Rocket 4.4 16:56:21 10° N 17:02:30 87° E 17:08:36 10° S
USA 306 3.4 16:58:40 10° W 17:02:48 47° N 17:03:52 38° NE
Cosmos 1500 3.0 17:00:43 10° N 17:04:30 83° E 17:08:13 10° SSE
Meteor 1-14 Rocket 4.2 16:59:25 10° N 17:05:10 62° ENE 17:11:00 10° SSE
CZ-4C R/B 2.9 16:59:08 10° NW 17:06:00 62° NE 17:11:25 22° ESE
ATLAS 2AS CENTAUR R/B 4.1 17:02:30 10° WNW 17:09:02 29° N 17:12:57 19° NNE
Cosmos 1666 Rocket 3.5 17:04:47 10° N 17:09:14 61° ENE 17:13:36 10° SSE
ERBS 3.4 17:06:39 10° W 17:09:35 31° NNW 17:09:43 31° NNW
Cosmos 372 Rocket 3.9 17:06:22 10° NNW 17:11:37 77° ENE 17:16:52 10° SSE
Cosmos 2360 Rocket 3.8 17:07:48 10° N 17:10:47 18° NNE 17:10:47 18° NNE
Cosmos 1151 Rocket 3.3 17:07:35 10° SSE 17:11:12 45° ESE 17:11:12 45° ESE
GEOS 3 Rocket 3.5 17:09:08 21° SE 17:12:42 80° NE 17:17:54 10° NW
SL-19 R/B 4.4 17:07:14 10° NNE 17:13:10 74° ESE 17:19:40 10° SSW
MOS 1-B Rocket 3.9 17:07:55 10° NNE 17:13:42 87° ESE 17:20:08 10° SSW
SKYMED 2 3.4 17:17:11 33° NNE 17:19:08 84° ESE 17:23:28 10° SSW
USA 307 3.4 17:16:05 10° WNW 17:20:14 46° N 17:20:36 45° NNE
Meteor 2-21 Rocket 4.4 17:15:19 10° N 17:21:29 90° NE 17:27:33 10° S
SJ-11-01 4.4 17:16:57 10° S 17:21:43 80° WSW 17:26:29 10° NNW
ATLAS CENTAUR R/B 2.3 17:18:23 10° SW 17:26:59 89° SSE 17:27:51 60° ENE
Meteor 2-8 Rocket 4.4 17:22:39 10° S 17:28:38 56° E 17:31:24 32° NNE
Cosmos 1818 3.8 17:23:58 10° NNW 17:29:19 49° NE 17:29:26 49° NE
Cosmos 2322 Rocket 3.3 17:24:57 10° NNW 17:28:41 28° NNE 17:28:41 28° NNE
ATLAS CENTAUR R/B 3.7 17:28:48 10° WNW 17:31:41 17° NNW 17:32:53 15° N
Meteor 1-5 Rocket 4.2 17:25:50 10° NNW 17:31:51 86° ENE 17:37:49 10° SSE
NOSS 2-2 (D) 4.4 17:26:54 10° NW 17:32:00 78° SW 17:37:24 18° SSE
Cosmos 2369 4.1 17:27:14 10° NNW 17:32:55 64° WSW 17:38:34 10° SSE
COSMOS 2455 2.8 17:27:49 10° SSW 17:33:46 68° ESE 17:35:04 53° ENE
Cosmos 1697 Rocket 3.9 17:29:56 10° NW 17:35:11 42° WSW 17:40:25 10° S
Cosmos 1980 Rocket 2.3 17:32:39 10° NNW 17:38:20 73° WSW 17:43:29 12° SSE
USA 308 3.7 17:38:33 10° WNW 17:42:02 42° NNW 17:42:02 42° NNW
Cosmos 1814 Rocket 4.1 17:37:55 10° S 17:42:23 58° SSE 17:42:23 58° SSE
Landsat 5 3.7 17:43:54 66° SW 17:43:54 66° SW 17:47:27 10° SSW
Cosmos 1812 3.8 17:41:24 10° SSW 17:43:54 38° SSW 17:43:54 38° SSW
SL-16 R/B 2.9 17:40:14 10° NNW 17:44:20 38° NNE 17:44:20 38° NNE
Cosmos 2142 Rocket 4.5 17:39:36 10° SSW 17:45:45 81° W 17:52:01 10° N
Spot 2 4.4 17:43:43 18° SSE 17:47:40 85° WSW 17:52:50 10° NNW
ISS -1.8 17:45:32 10° WNW 17:47:25 30° W 17:47:25 30° W
Cosmos 1782 4.2 17:46:15 10° SW 17:49:59 37° WNW 17:51:20 29° NNW
Cosmos 2333 Rocket 4.1 17:45:52 10° N 17:47:49 16° N 17:47:49 16° N
Cosmos 2082 Rocket 2.0 17:45:29 10° SSW 17:51:11 85° ESE 17:51:41 75° NE
Cosmos 540 Rocket 3.9 17:46:15 10° SW 17:51:16 57° WNW 17:52:54 39° N
CZ-4 R/B 3.9 18:00:06 14° NNW 18:00:06 14° NNW 18:00:47 10° NNW
H-2A R/B 4.1 17:53:04 10° SSW 17:57:26 27° W 18:01:44 10° NW
Cosmos 2278 3.9 17:52:31 10° NNW 17:58:13 71° WSW 18:00:07 43° S
Cosmos 2279 Rocket 4.2 17:53:33 10° SSW 17:59:45 69° WNW 18:05:58 10° N
Cosmos 2266 Rocket 3.9 17:56:10 10° N 18:02:34 85° E 18:04:50 44° SSE
COSMOS 2406 3.8 17:57:19 10° SW 18:02:57 54° NW 18:04:43 39° N
COSMO-SKYMED 1 4.1 18:05:48 29° NNW 18:07:04 35° WNW 18:11:00 10° SW
Meteor 2-6 Rocket 4.2 18:03:33 10° SSW 18:09:20 79° W 18:09:29 78° WNW
Lacrosse 5 rocket 3.4 18:07:07 10° NW 18:08:35 22° NW 18:08:35 22° NW
Cosmos 1833 Rocket 4.0 18:15:06 10° WSW 18:20:13 35° NW 18:21:50 29° NNW
Cosmos 1655 Rocket 4.3 18:17:19 10° NNW 18:23:42 68° W 18:30:00 10° S
Okean O Rocket 4.1 18:20:29 10° SW 18:23:51 21° W 18:27:15 10° NW
USA 267 3.7 18:27:14 48° N 18:27:22 48° N 18:33:34 10° WNW
Cosmos 2219 Rocket 4.4 18:23:16 10° NNW 18:24:17 14° N 18:24:17 14° N
CZ-4C R/B 3.8 18:47:46 10° NW 18:54:41 46° WSW 18:56:41 39° SSW
Cosmos 2360 Rocket 4.3 18:51:07 10° NNW 18:52:33 18° NNW 18:52:33 18° NNW
ATLAS 2AS CENTAUR R/B 4.2 18:55:38 10° NW 19:00:23 28° N 19:00:23 28° N
Cosmos 2322 Rocket 4.3 19:08:47 10° NW 19:10:31 20° NW 19:10:31 20° NW
